Location: Newark
(34.9500°N, 139.9667°E)
Time: 02:51:44
(UTC+00:00)

Transit 2A - Pass Details

Date: 09 December 2019
Orbit: 601 x 958 km, 66.7° (Epoch: 22 January)

Event Time Altitude Azimuth Distance (km) Brightness Sun altitude
Rises 22:24:06 0° 238° (WSW) 3,126 8.9 7.5°
Reaches altitude 10° 22:26:59 10° 253° (WSW) 2,145 8.0 8.0°
Maximum altitude 22:30:45 22° 304° (NW) 1,420 6.9 8.6°
Drops below altitude 10° 22:34:20 10° 357° (N) 2,018 7.9 9.2°
Sets 22:36:58 0° 12° (NNE) 2,894 8.7 9.7°
